FW2404 Weather Reports


Display with metric or nautical units.
time (UTC)temp
F
wind
direction
speed
MPH
gust
MPH
rain 1hr
in
rain 24hr
in
rain mn
in
humidity
%
barometer
mb
20200406040223 49 77 3.0 4.0 0.00 0.00 0.00 89 1018.2
20200406035722 49 84 3.0 4.0 0.00 0.00 0.00 88 1018.3
20200406035221 49 85 3.0 4.0 0.00 0.00 0.00 88 1018.3
20200406034722 50 85 3.0 4.0 0.00 0.00 0.00 87 1018.3
20200406034221 50 85 3.0 4.0 0.00 0.00 0.00 87 1018.3
20200406033721 51 78 3.0 8.0 0.00 0.00 0.00 87 1018.2
20200406033221 51 83 3.0 8.0 0.00 0.00 0.00 87 1018.3
20200406032721 51 82 4.0 8.0 0.00 0.00 0.00 86 1018.3
20200406032222 52 96 4.0 8.0 0.00 0.00 0.00 86 1018.4
20200406031723 52 97 4.0 7.0 0.00 0.00 0.00 86 1018.5
20200406031221 52 99 4.0 7.0 0.00 0.00 0.00 86 1018.5
20200406030722 52 95 4.0 7.0 0.00 0.00 0.00 87 1018.6
20200406030219 52 101 3.0 6.0 0.00 0.00 0.00 87 1018.6
20200406025719 52 89 3.0 6.0 0.00 0.00 0.00 87 1018.7
20200406025220 52 90 3.0 4.0 0.00 0.00 0.00 87 1018.7
20200406024719 52 91 3.0 6.0 0.00 0.00 0.00 87 1018.8
20200406024220 52 93 3.0 6.0 0.00 0.00 0.00 87 1018.8
20200406023719 52 84 3.0 4.0 0.00 0.00 0.00 87 1018.8
20200406023220 52 84 3.0 4.0 0.00 0.00 0.00 87 1018.8
20200406022720 52 84 3.0 4.0 0.00 0.00 0.00 87 1018.8
20200406022219 52 84 3.0 4.0 0.00 0.00 0.00 87 1018.8
20200406021718 52 83 3.0 4.0 0.00 0.00 0.00 87 1018.7
20200406021219 52 82 2.0 4.0 0.00 0.00 0.00 87 1018.6
20200406020719 52 82 2.0 4.0 0.00 0.00 0.00 87 1018.6
20200406020217 52 82 2.0 3.0 0.00 0.00 0.00 87 1018.5
20200406015717 52 82 2.0 4.0 0.00 0.00 0.00 87 1018.5
20200406015219 52 82 2.0 4.0 0.00 0.00 0.00 87 1018.4
20200406014717 52 82 2.0 4.0 0.00 0.00 0.00 86 1018.4
20200406014218 52 82 3.0 4.0 0.00 0.00 0.00 86 1018.4
20200406013720 52 82 3.0 6.0 0.00 0.00 0.00 86 1018.4
20200406013217 52 82 3.0 6.0 0.00 0.00 0.00 86 1018.4
20200406012718 52 84 3.0 4.0 0.00 0.00 0.00 86 1018.4
20200406012215 52 74 3.0 5.0 0.00 0.00 0.00 86 1018.3
20200406011715 52 74 3.0 5.0 0.00 0.00 0.00 86 1018.3
20200406011215 53 62 2.0 4.0 0.00 0.00 0.00 87 1018.3
20200406010716 53 62 2.0 3.0 0.00 0.00 0.00 86 1018.3
20200406010215 53 62 2.0 3.0 0.00 0.00 0.00 86 1018.3
20200406005715 53 78 2.0 3.0 0.00 0.00 0.00 86 1018.2
20200406005214 53 108 1.0 3.0 0.00 0.00 0.00 86 1018.3
20200406004715 53 108 1.0 3.0 0.00 0.00 0.00 85 1018.3
20200406004216 53 108 2.0 3.0 0.00 0.00 0.00 85 1018.3
20200406003715 53 80 2.0 3.0 0.00 0.00 0.00 85 1018.4
20200406003213 53 90 1.0 3.0 0.00 0.00 0.00 85 1018.3
20200406002712 53 90 2.0 4.0 0.00 0.00 0.00 85 1018.4
20200406002213 53 75 3.0 4.0 0.00 0.00 0.00 85 1018.4
20200406001714 53 82 3.0 4.0 0.00 0.00 0.00 84 1018.3
20200406001213 53 83 3.0 4.0 0.00 0.00 0.00 84 1018.3
20200406000711 53 87 3.0 4.0 0.00 0.00 0.00 84 1018.2
20200406000211 53 87 3.0 4.0 0.00 0.00 0.00 84 1018.3
20200405235712 53 94 3.0 4.0 0.00 0.00 0.00 83 1018.4
20200405235212 53 115 2.0 4.0 0.00 0.00 0.00 83 1018.5
20200405234712 53 116 3.0 4.0 0.00 0.00 0.00 83 1018.4
20200405234209 53 117 3.0 6.0 0.00 0.00 0.00 83 1018.4
20200405233710 54 105 3.0 6.0 0.00 0.00 0.00 83 1018.4
20200405233209 54 80 2.0 5.0 0.00 0.00 0.00 82 1018.4
20200405232710 54 134 1.0 4.0 0.00 0.00 0.00 82 1018.5
20200405232208 54 137 1.0 2.0 0.00 0.00 0.00 81 1018.5
20200405231710 54 142 1.0 3.0 0.00 0.00 0.00 81 1018.6
20200405231209 54 142 1.0 4.0 0.00 0.00 0.00 81 1018.5
20200405230709 54 134 2.0 4.0 0.00 0.00 0.00 80 1018.6
20200405230210 54 121 2.0 4.0 0.00 0.00 0.00 81 1018.6
20200405225706 54 121 1.0 4.0 0.00 0.00 0.00 82 1018.5
20200405225205 54 120 1.0 5.0 0.00 0.00 0.00 81 1018.5
20200405224706 54 120 2.0 5.0 0.00 0.00 0.00 82 1018.5
20200405224205 54 111 3.0 6.0 0.00 0.00 0.00 81 1018.4
20200405223706 54 124 3.0 6.0 0.00 0.00 0.00 82 1018.5
20200405223203 54 108 3.0 6.0 0.00 0.00 0.00 82 1018.4
20200405222703 54 94 3.0 7.0 0.00 0.00 0.00 82 1018.5
20200405222203 54 119 3.0 7.0 0.00 0.00 0.00 81 1018.5
20200405221728 54 128 2.0 5.0 0.00 0.00 0.00 82 1018.5
20200405063117 40 84 3.0 7.0 0.00 0.06 0.00 95 1019.0
20200405062619 40 80 3.0 6.0 0.00 0.06 0.00 95 1019.1
20200405062118 40 103 3.0 6.0 0.00 0.06 0.00 95 1019.0
20200405061619 40 99 3.0 6.0 0.00 0.06 0.00 95 1019.1
20200405061119 40 95 3.0 4.0 0.00 0.06 0.00 95 1019.2
20200405060618 39 95 3.0 6.0 0.00 0.06 0.00 95 1019.2
20200405060117 39 98 3.0 6.0 0.00 0.06 0.00 95 1019.2
20200405055714 39 94 4.0 6.0 0.00 0.06 0.00 95 1019.1
20200405055117 39 98 4.0 6.0 0.00 0.06 0.00 95 1019.1
20200405054618 40 103 3.0 6.0 0.00 0.06 0.00 95 1019.1
20200405054117 39 78 2.0 4.0 0.00 0.06 0.00 95 1019.1
20200405053619 39 71 2.0 4.0 0.00 0.06 0.00 95 1019.3
20200405053117 39 86 3.0 5.0 0.00 0.06 0.00 95 1019.3
20200405052618 39 71 3.0 5.0 0.00 0.06 0.00 95 1019.2
20200405052118 39 71 3.0 4.0 0.00 0.06 0.00 95 1019.3
20200405051619 39 69 3.0 5.0 0.00 0.06 0.00 95 1019.2
20200405051119 39 78 4.0 5.0 0.00 0.06 0.00 95 1019.2
20200405050618 39 65 3.0 7.0 0.00 0.06 0.00 95 1019.3
20200405050119 39 79 3.0 7.0 0.00 0.06 0.00 95 1019.3
20200405045618 39 69 3.0 7.0 0.00 0.06 0.06 95 1019.3
20200405045118 39 80 3.0 7.0 0.00 0.06 0.06 95 1019.2
20200405044617 39 95 2.0 6.0 0.00 0.06 0.06 95 1019.2
20200405044117 39 76 2.0 3.0 0.00 0.06 0.06 95 1019.3
20200405043613 39 75 2.0 3.0 0.00 0.07 0.06 95 1019.4
20200405043114 39 75 2.0 4.0 0.00 0.07 0.06 95 1019.3
20200405042615 39 75 2.0 4.0 0.00 0.07 0.06 95 1019.2
20200405042159 39 52 2.0 3.0 0.00 0.07 0.06 95 1019.2
20200405041613 39 50 2.0 4.0 0.00 0.07 0.06 95 1019.2
20200405041114 39 50 2.0 4.0 0.00 0.07 0.06 95 1019.3
20200405040613 39 46 2.0 5.0 0.00 0.07 0.06 95 1019.3